Ketchikan, AK

2:50 AM AKST on January 21, 2019 (GMT -0900)
Ketchikan International

Weather History for PAKT - November, 2018

Change the Weather History Date:

Friday, November 2, 2018

  Actual Average Record
Temperature  
Mean Temperature 48 °F -  
Max Temperature 51 °F 48 °F 65 °F (1949)
Min Temperature 45 °F 38 °F 26 °F (2003)
Degree Days  
Heating Degree Days 17    
Moisture  
Dew Point 46 °F    
Average Humidity 90    
Maximum Humidity 96    
Minimum Humidity 82    
Precipitation  
Precipitation 0.39 in - - ()
Sea Level Pressure  
Sea Level Pressure 29.68 in    
Wind  
Wind Speed 12 mph (SE)    
Max Wind Speed 22 mph    
Max Gust Speed 28 mph    
Visibility 7 miles    
Events Rain    
Averages and records for this station are not official NWS values.
T = Trace of Precipitation, MM = Missing Value Source: NWS Daily Summary

Daily Weather History Graph

Daily Weather History Graph

Search for Another Location

Airport or City:

Astronomy

Nov. 02, 2018 Rise Set
Actual Time 7:54 AM AKDT 5:05 PM AKDT
Civil Twilight 7:15 AM AKDT 5:44 PM AKDT
Nautical Twilight 6:31 AM AKDT 6:28 PM AKDT
Astronomical Twilight 5:49 AM AKDT 7:10 PM AKDT
Moon 1:00 AM AKDT (11/2) 3:53 PM AKDT (11/2)
Length of Visible Light 10h 29m
Length of Day
9h 11m
Waning Crescent, 27% of the Moon is Illuminated
Nov 2
Waning Crescent
Nov 7
New
Nov 15
First Quarter
Nov 22
Full
Nov 29
Last Quarter

Hourly Weather History & Observations

Time (AKDT) Temp. Windchill Dew Point Humidity Pressure Visibility Wind Dir Wind Speed Gust Speed Precip Events Conditions
12:24 AM 50.0 °F - 48.0 °F 93% 29.51 in 6.0 mi SE 11.5 mph 21.9 mph 0.01 in Rain Rain
12:49 AM 48.2 °F - 46.4 °F 93% 29.51 in 10.0 mi ESE 15.0 mph - 0.02 in   Overcast
12:53 AM 48.9 °F - 46.9 °F 93% 29.51 in 10.0 mi ESE 12.7 mph - 0.02 in   Overcast
1:42 AM 50.0 °F - 46.9 °F 89% 29.52 in 10.0 mi ESE 17.3 mph - N/A   Overcast
1:53 AM 50.0 °F - 46.9 °F 89% 29.52 in 10.0 mi ESE 15.0 mph - N/A   Overcast
2:53 AM 50.0 °F - 46.0 °F 86% 29.52 in 8.0 mi SE 15.0 mph - 0.02 in Rain Light Rain
3:08 AM 50.0 °F - 46.0 °F 86% 29.52 in 10.0 mi SE 11.5 mph - 0.00 in Rain Light Rain
3:24 AM 48.9 °F - 46.9 °F 93% 29.52 in 4.0 mi SE 10.4 mph - 0.01 in Rain Light Rain
3:53 AM 48.9 °F - 46.9 °F 93% 29.52 in 5.0 mi SSE 9.2 mph - 0.03 in Rain Light Rain
4:30 AM 48.9 °F - 46.0 °F 90% 29.53 in 3.0 mi SE 18.4 mph - 0.02 in Rain Light Rain
4:53 AM 48.9 °F - 46.9 °F 93% 29.54 in 2.5 mi SE 16.1 mph - 0.03 in Rain Light Rain
5:53 AM 48.9 °F - 46.9 °F 93% 29.55 in 3.0 mi SE 16.1 mph - 0.03 in Rain Light Rain
6:03 AM 48.2 °F - 46.4 °F 93% 29.54 in 4.0 mi ESE 17.3 mph - N/A Rain Light Rain
6:53 AM 50.0 °F - 48.2 °F 94% 29.56 in 6.0 mi SE 13.8 mph 25.3 mph N/A   Overcast
7:53 AM 50.0 °F - 48.2 °F 94% 29.58 in 9.0 mi SE 15.0 mph - N/A   Overcast
8:53 AM 50.0 °F - 48.2 °F 94% 29.61 in 10.0 mi SE 13.8 mph - N/A   Overcast
9:53 AM 50.0 °F - 48.2 °F 94% 29.65 in 3.0 mi SE 11.5 mph - N/A Rain Light Rain
10:53 AM 51.8 °F - 48.2 °F 88% 29.67 in 6.0 mi ESE 9.2 mph - N/A   Overcast
11:53 AM 51.8 °F - 48.2 °F 88% 29.72 in 3.0 mi ESE 6.9 mph - N/A Rain Light Rain
12:00 PM 51.1 °F - 50.0 °F 96% 29.73 in 3.0 mi ESE 5.8 mph - 0.01 in Rain Light Rain
12:53 PM 50.0 °F - 46.4 °F 87% 29.78 in 3.0 mi NNW 10.4 mph - N/A   Overcast
1:53 PM 48.2 °F - 44.6 °F 87% 29.83 in 10.0 mi NW 5.8 mph - N/A   Mostly Cloudy
2:53 PM 48.2 °F - 44.6 °F 87% 29.85 in 10.0 mi Calm Calm - N/A   Overcast
3:53 PM 48.2 °F - 46.4 °F 93% 29.89 in 10.0 mi Calm Calm - N/A   Overcast
4:53 PM 48.2 °F - 44.6 °F 87% 29.89 in 10.0 mi ESE 11.5 mph - N/A   Overcast
5:53 PM 48.2 °F - 44.6 °F 87% 29.88 in 10.0 mi SE 5.8 mph - N/A   Overcast
6:53 PM 48.2 °F - 44.6 °F 87% 29.90 in 10.0 mi SE 6.9 mph - N/A   Overcast
7:53 PM 48.2 °F - 42.8 °F 82% 29.88 in 10.0 mi SE 6.9 mph - N/A Rain Light Rain
8:53 PM 46.4 °F 41.9 °F 42.8 °F 87% 29.86 in 10.0 mi SE 9.2 mph - N/A Rain Light Rain
9:24 PM 45.0 °F 41.2 °F 42.1 °F 90% 29.84 in 7.0 mi SSE 6.9 mph - 0.03 in Rain Light Rain
9:53 PM 45.0 °F 38.9 °F 42.1 °F 90% 29.82 in 5.0 mi SE 12.7 mph - 0.06 in Rain Light Rain
10:25 PM 46.0 °F 39.0 °F 43.0 °F 89% 29.81 in 4.0 mi SE 17.3 mph - 0.06 in Rain Rain
10:49 PM 46.4 °F 40.7 °F 42.8 °F 87% 29.79 in 8.0 mi SE 12.7 mph - 0.08 in Rain Light Rain
10:53 PM 46.0 °F 39.9 °F 43.0 °F 89% 29.79 in 8.0 mi SE 13.8 mph - 0.09 in Rain Light Rain
11:41 PM 46.9 °F - 44.1 °F 90% 29.75 in 4.0 mi SSE 16.1 mph 21.9 mph 0.07 in Rain Rain
11:53 PM 46.9 °F - 44.1 °F 90% 29.74 in 4.0 mi SE 21.9 mph 27.6 mph 0.11 in Rain Rain